Theta_e
315 316 316 316 316 317 316 314 313 312 310 309 308 309 310 310 308 305 306 307 315 315 316 316 317 319 319 324 323 321 319 321 323 329 329 326 331 325 326 330 331 332 331 332 332
312 315 315 314 315 314 315 317 314 312 312 310 311 310 309 311 309 308 303 304 308 313 318 319 317 319 317 323 325 322 317 317 320 324 327 326 327 327 330 331 332 333 332 331 334
310 311 312 311 310 312 313 314 317 314 312 312 311 310 310 310 307 303 310 308 306 307 316 318 320 319 316 322 325 323 316 315 317 322 322 325 325 325 329 333 332 333 334 333 334
310 310 312 310 311 309 313 313 316 316 313 312 311 310 310 309 306 312 313 307 309 307 315 318 320 319 316 317 323 323 321 318 320 321 323 324 324 325 326 329 325 329 331 333 334
310 307 309 309 311 310 309 313 314 317 315 313 311 310 311 309 307 304 312 311 308 309 314 316 318 319 316 318 322 322 321 320 320 321 322 321 323 325 325 325 322 326 328 333 334
307 310 308 308 310 309 309 312 313 315 317 314 312 311 309 309 305 304 309 313 315 312 313 317 317 319 318 318 319 320 321 321 321 322 321 323 322 322 322 322 323 327 327 330 333
304 307 308 307 308 310 310 311 313 312 316 317 312 312 309 311 306 306 309 313 314 315 311 318 318 320 318 319 318 320 320 320 320 321 322 321 322 322 320 320 322 324 327 329 330
303 305 306 308 305 309 310 311 312 312 313 315 314 311 312 309 307 309 310 311 313 314 316 317 317 320 320 318 320 320 318 313 313 320 320 320 316 317 319 320 320 320 324 329 331
304 304 305 306 307 306 310 311 310 311 312 313 314 311 313 309 309 309 307 310 314 314 315 316 318 320 320 320 320 320 313 315 312 318 319 320 316 316 316 317 319 319 320 322 323
305 304 305 305 306 305 306 310 309 310 312 313 312 311 309 310 310 309 308 312 315 314 316 318 321 319 321 318 311 317 315 316 314 316 318 319 320 317 317 316 317 317 319 320 321
304 304 304 305 305 306 306 309 309 309 311 314 314 312 309 309 308 308 309 315 314 312 310 317 316 318 317 316 313 313 315 313 314 313 314 315 316 315 314 315 316 316 316 317 316
306 304 303 303 304 306 306 308 309 310 312 311 312 309 308 308 310 309 311 312 312 309 314 316 311 313 318 320 316 315 315 316 315 313 314 313 314 313 313 313 313 313 313 313 314
305 305 303 303 304 305 307 308 308 309 312 313 312 311 310 309 310 310 311 312 312 312 311 308 310 314 317 321 321 319 316 314 312 314 313 312 310 310 310 311 311 312 312 312 313
303 305 304 303 305 305 306 307 308 308 312 311 315 313 311 311 312 308 310 311 313 311 312 307 309 314 314 315 318 318 317 317 317 316 311 313 307 309 309 309 310 311 312 312 312
303 304 304 303 305 304 305 305 307 306 313 310 313 311 311 312 311 310 309 311 313 312 312 309 311 314 315 314 315 313 316 316 316 318 316 312 315 309 310 310 310 311 311 311 311
302 304 303 303 304 305 305 305 305 307 312 312 312 313 313 313 312 309 310 309 310 313 310 309 310 310 310 313 315 315 317 316 317 317 316 310 310 306 307 309 309 309 309 309 308
302 304 303 303 304 304 305 306 307 309 308 313 312 312 312 313 312 311 312 311 313 314 312 311 312 311 312 314 315 314 313 316 315 316 313 309 311 308 307 307 308 308 308 308 308
300 302 304 303 303 303 303 305 309 307 309 308 310 312 312 312 312 312 313 313 311 309 312 313 314 311 312 311 313 314 309 311 309 311 309 310 310 308 310 309 309 308 308 308 309
300 299 303 304 303 303 304 306 309 308 307 310 310 311 312 311 312 313 314 314 312 310 313 312 312 309 311 310 312 314 315 308 309 304 310 309 309 308 309 309 308 307 307 308 308
300 299 300 304 303 303 303 306 306 303 306 308 311 310 312 312 312 313 314 312 312 310 308 310 312 308 310 309 310 313 311 311 310 311 309 305 306 306 307 306 305 305 306 306 306
299 300 298 302 303 303 305 304 305 302 302 308 309 311 310 312 312 313 313 310 311 310 309 309 310 310 310 312 312 311 314 312 309 308 306 305 304 305 306 307 305 305 304 306 306
299 300 297 302 302 301 305 304 303 301 302 304 306 309 310 311 312 311 311 310 310 310 311 310 311 314 311 310 310 310 311 311 310 310 308 306 306 302 305 305 305 304 304 305 306
298 299 299 301 303 305 302 303 302 302 304 304 306 307 308 310 311 310 310 309 309 310 311 310 311 314 313 310 308 311 310 312 310 308 312 311 309 308 304 305 305 303 303 304 306
298 299 298 300 300 303 303 303 303 302 303 303 305 305 307 308 308 310 310 309 308 310 310 310 311 312 313 309 310 311 311 310 312 313 311 310 310 310 308 307 306 305 305 305 307
296 299 298 300 301 302 300 300 301 302 302 303 303 306 308 308 309 309 308 309 308 309 310 311 313 311 311 310 309 310 311 312 311 311 312 311 309 309 308 308 308 307 306 305 305
296 298 296 296 300 302 301 300 302 300 302 303 303 305 306 306 307 307 307 309 308 309 310 310 313 311 311 311 310 309 308 311 311 310 310 310 310 310 310 309 309 306 306 306 306
295 296 299 299 299 300 302 302 301 301 300 302 303 303 303 304 302 302 305 305 307 306 307 308 311 311 312 311 311 312 311 310 311 310 310 312 310 310 310 310 310 309 307 307 306
Wind_Speed
17 15 14 12 10 14 13 12 11 10 9 8 6 5 5 7 9 8 6 5 4 6 8 9 6 4 1 2 1 1 5 9 10 9 7 10 11 5 2 5 4 6 1 4 18
18 17 16 13 13 12 10 15 13 11 9 8 7 5 4 7 9 7 6 8 10 7 3 2 5 1 1 2 2 5 5 8 3 7 6 11 10 11 7 8 7 5 5 8 16
21 20 15 15 13 13 13 13 17 13 11 9 9 7 4 6 4 3 1 3 8 10 5 2 1 3 5 3 4 4 6 3 2 3 1 7 7 5 8 11 12 14 13 13 17
19 21 18 18 16 12 14 15 15 17 13 11 8 7 3 1 4 2 1 4 4 11 5 3 3 6 6 7 4 4 4 3 0 1 3 4 4 5 10 3 1 5 8 16 17
18 18 18 20 17 15 16 16 14 17 17 13 10 8 3 3 6 6 1 3 3 11 7 5 6 4 7 5 6 7 4 5 0 2 1 1 4 4 9 9 2 2 7 13 15
19 17 18 15 17 18 16 15 15 13 17 16 13 12 4 7 5 7 5 3 5 7 5 5 5 3 3 2 7 4 4 4 2 3 2 4 4 3 7 6 6 5 8 11 14
25 19 18 17 13 15 17 16 15 13 14 18 17 14 5 9 4 6 7 5 4 6 6 4 5 3 6 4 1 3 3 1 6 5 4 3 10 11 16 4 7 10 9 10 14
25 22 19 18 17 14 15 15 13 12 12 9 21 13 6 7 11 9 6 4 4 5 3 5 3 4 3 5 3 3 2 4 4 7 3 8 17 11 12 12 16 15 11 10 12
22 23 19 19 15 15 13 15 12 11 12 7 15 11 5 2 7 15 12 4 6 4 2 5 3 3 4 8 4 3 3 10 3 6 1 11 6 10 6 11 13 15 16 14 13
22 23 25 18 19 16 14 13 11 10 9 7 5 4 2 5 4 7 12 12 4 10 5 5 4 7 8 11 9 9 6 4 5 3 5 7 16 15 8 4 11 12 15 16 15
22 23 24 25 18 18 15 4 5 4 13 6 6 2 2 4 6 5 11 12 7 8 9 7 8 14 17 17 3 5 6 5 2 2 3 13 17 21 15 12 17 18 17 14 16
24 24 25 27 24 18 21 8 4 3 6 16 12 3 7 7 4 9 12 11 11 11 9 6 16 11 12 11 10 6 7 6 5 2 3 11 18 21 19 19 19 18 19 20 21
20 25 25 25 25 19 22 26 12 5 4 7 13 7 5 9 4 14 13 8 11 11 16 11 2 12 11 11 11 10 11 5 4 9 5 10 20 21 14 9 18 19 20 20 22
19 24 24 22 16 16 22 21 13 2 4 11 10 10 6 7 3 10 13 6 4 13 10 9 5 14 13 14 12 12 8 8 7 4 6 5 10 10 7 11 9 13 17 20 19
17 25 25 27 13 18 5 19 19 4 6 13 11 14 14 12 13 9 11 3 9 11 8 6 12 13 15 13 14 4 10 9 8 8 7 6 6 3 3 6 15 17 15 13 12
14 22 23 25 20 17 17 22 15 6 8 7 10 14 15 16 10 7 6 1 3 6 3 1 1 9 10 10 16 11 10 6 4 2 6 9 7 11 8 8 9 11 10 8 5
11 20 23 25 18 22 23 16 6 7 3 8 10 14 26 15 13 12 12 7 10 6 8 2 4 3 6 10 10 11 15 3 3 4 6 2 9 13 4 8 9 5 7 6 7
9 7 20 25 22 28 23 6 11 15 6 1 12 15 21 21 12 11 12 11 17 7 8 10 6 11 10 9 11 17 16 5 8 6 2 4 10 4 8 8 11 9 11 11 10
6 5 10 26 28 30 8 12 9 4 16 13 15 13 11 12 11 15 13 11 18 17 11 9 8 7 13 6 15 16 12 7 4 2 2 6 7 10 13 15 13 12 8 10 9
3 1 7 24 31 25 9 19 3 3 4 19 18 13 13 18 13 17 15 18 14 21 8 6 3 1 7 4 5 11 12 5 5 6 6 8 8 10 3 7 5 1 5 4 5
4 1 5 23 33 9 9 10 9 6 1 11 19 11 18 12 16 15 14 10 25 20 19 6 4 3 8 13 18 8 12 6 5 6 5 5 7 4 14 10 1 7 5 3 4
4 2 2 29 9 5 10 8 9 8 4 3 2 7 15 20 17 19 19 19 18 21 20 18 5 8 13 6 15 19 16 16 7 9 10 8 11 6 4 5 6 3 1 1 3
5 1 3 18 6 7 4 6 4 7 6 6 4 4 6 15 15 18 18 16 14 21 17 15 8 8 6 6 5 12 19 21 18 2 14 10 12 6 7 10 7 6 4 3 4
3 3 1 5 2 3 10 7 12 6 7 5 6 2 5 6 3 9 19 13 12 19 11 18 10 17 20 22 10 15 21 21 20 11 17 15 25 22 16 11 6 5 7 5 6
1 4 4 5 8 13 4 11 12 9 8 9 3 10 9 7 9 8 4 9 9 10 15 11 10 16 21 21 14 17 22 24 23 24 18 22 25 31 23 21 17 16 11 10 9
5 4 2 1 2 13 14 8 17 8 16 10 7 21 16 11 12 14 14 7 1 6 12 8 6 6 13 21 20 18 17 22 25 27 26 25 24 28 25 21 19 16 16 12 10
5 4 3 8 6 6 6 22 23 18 13 12 22 7 11 20 3 1 4 5 6 11 8 6 3 6 21 11 14 18 24 22 21 23 23 25 29 30 30 23 20 18 16 15 14
Wind_Direction
254 240 230 221 227 238 241 246 246 244 241 251 246 257 281 302 306 295 260 234 259 267 275 285 298 330 3 109 59 223 213 220 214 192 197 157 188 163 133 166 189 175 337 68 150
253 245 238 235 235 241 244 241 244 240 238 237 239 245 274 308 310 240 249 246 246 263 259 221 207 271 163 149 148 218 222 226 211 198 204 177 200 168 179 179 207 187 142 135 154
252 246 245 239 243 247 252 251 240 239 236 226 230 239 260 313 289 175 174 266 260 239 232 158 187 205 195 192 177 170 229 226 223 218 269 180 199 183 199 202 201 206 177 161 167
253 249 247 250 250 247 250 248 244 233 234 228 221 226 230 0 245 143 63 322 251 199 219 173 168 181 189 190 173 199 191 183 63 182 184 189 154 203 223 183 178 210 181 170 178
257 253 255 248 247 251 246 241 241 237 229 224 211 202 181 196 240 194 159 65 133 183 203 187 178 162 195 176 156 219 164 191 120 149 169 164 209 237 239 233 201 181 182 195 198
266 257 255 255 251 247 248 239 239 237 226 220 207 184 187 221 212 199 182 132 144 182 200 176 191 147 125 177 212 173 173 149 170 196 238 237 226 198 240 249 222 211 218 215 213
271 265 259 254 259 245 235 233 233 232 228 216 205 183 194 235 203 189 180 166 138 180 183 203 156 163 141 144 104 112 176 181 207 198 221 206 241 226 242 210 229 230 227 229 224
251 263 256 247 240 241 230 217 224 231 232 219 197 176 230 251 214 194 172 169 163 170 174 184 187 126 149 128 86 177 272 235 178 185 201 203 254 224 241 229 236 237 235 226 225
242 236 253 243 239 238 230 216 223 228 217 202 170 169 224 195 217 227 211 176 159 158 137 169 212 149 146 160 144 162 214 223 270 208 172 209 264 264 245 213 233 239 240 236 233
246 239 230 251 240 230 232 218 208 206 198 159 142 136 236 209 181 180 183 171 158 151 139 170 187 183 185 192 201 193 198 208 221 139 232 234 249 254 245 256 249 241 237 241 242
242 238 234 230 246 231 212 200 158 224 211 181 157 127 144 142 125 165 164 150 138 174 188 189 201 205 194 200 220 205 208 205 180 144 242 243 255 265 263 249 252 252 253 246 245
247 234 229 225 230 225 209 203 222 117 202 222 181 97 147 173 119 155 167 172 181 189 163 175 224 205 184 187 196 211 217 227 260 215 244 276 265 270 262 246 242 245 246 246 250
258 232 226 224 219 213 206 208 200 274 243 181 193 168 194 156 143 177 185 165 188 185 192 206 148 180 178 182 190 215 228 206 271 323 268 308 278 253 255 259 246 243 243 247 244
252 231 219 215 203 204 214 201 150 115 226 197 191 195 181 97 182 173 183 169 174 199 184 226 169 186 196 203 197 217 202 222 244 283 262 8 288 260 243 268 241 239 233 241 246
259 222 210 195 184 190 191 198 191 83 215 178 168 159 156 192 137 198 175 155 177 169 181 183 175 178 196 202 190 196 172 193 215 234 297 225 256 239 137 250 257 253 245 240 241
280 215 205 199 202 193 184 177 151 183 222 151 140 169 163 182 194 130 165 102 117 150 61 137 60 203 203 168 185 140 124 95 113 211 255 217 225 263 236 224 255 257 261 244 243
300 218 201 194 201 183 170 145 206 205 156 157 162 169 183 180 158 163 167 180 165 156 191 122 181 180 182 145 172 176 164 142 196 201 255 141 209 254 258 229 245 269 274 253 259
292 252 211 202 192 185 172 195 223 194 191 322 167 178 190 179 186 164 163 178 218 206 162 183 209 181 184 196 179 187 180 184 208 201 232 169 236 263 251 266 270 282 279 283 277
271 272 254 199 194 178 177 223 205 196 173 177 170 174 190 190 170 180 182 200 201 202 206 192 228 197 186 162 153 185 210 211 105 76 271 222 263 251 250 257 259 258 262 269 278
177 162 258 196 188 179 204 224 243 263 274 187 181 178 186 183 192 188 179 204 211 204 224 189 167 299 176 198 218 187 165 161 219 204 236 246 271 246 217 201 131 16 270 289 253
174 222 219 201 179 191 207 214 193 170 289 220 198 177 197 174 185 187 192 206 205 193 204 184 234 121 153 208 186 177 189 202 195 219 232 267 259 234 229 250 161 123 229 266 255
146 199 212 175 191 192 200 182 173 157 148 248 277 184 185 182 192 200 204 210 196 187 197 200 232 214 202 202 225 212 202 183 189 202 234 264 248 164 156 141 173 159 19 298 264
155 187 161 184 235 197 178 178 149 162 174 154 211 228 179 189 202 193 201 218 198 181 183 176 214 214 197 221 191 216 219 211 226 284 211 214 254 188 226 263 257 240 233 194 188
134 166 229 211 228 263 171 193 195 191 174 152 161 165 162 194 271 205 217 214 189 201 191 173 209 214 226 231 187 206 211 217 217 222 233 230 263 251 246 258 277 166 175 187 197
140 206 185 184 223 215 217 162 172 183 217 176 140 182 180 170 167 192 237 220 192 196 189 193 218 219 235 242 232 219 208 213 216 221 223 234 241 261 255 257 250 254 255 232 213
158 178 182 215 106 200 202 206 186 176 173 194 195 198 190 194 192 197 186 173 170 179 184 204 211 182 242 243 244 242 229 220 215 223 228 240 246 257 264 266 264 243 253 256 249
164 157 182 208 192 182 209 212 212 195 205 220 213 187 205 221 193 72 189 178 189 178 220 256 230 209 238 231 235 240 226 219 222 224 227 234 238 252 259 255 258 252 250 260 262